Temperature
18 18 17 17 17 17 17 17 17 17 17 17 17 17 17 17 17 17 17 17 17 17 17 17 17 17 17 17 17 17 17 17 17 17 17 17 17 17 17 17 16 16 16
18 17 17 17 17 17 17 17 17 17 17 17 17 17 17 17 17 17 17 17 17 17 17 17 16 16 17 17 17 17 17 17 17 17 17 17 17 17 16 16 16 16 16
17 17 17 17 17 17 17 17 17 17 17 17 17 17 17 16 16 16 16 16 16 16 16 16 16 16 16 16 16 16 16 16 16 16 16 16 16 16 16 16 16 16 16
17 17 17 17 16 16 16 16 16 16 16 16 16 16 16 16 16 16 16 16 16 16 16 16 16 16 16 16 16 16 16 16 16 16 16 15 15 15 15 15 15 15 15
17 17 16 16 16 16 16 16 16 16 16 16 16 16 16 16 16 16 16 16 16 16 15 15 15 15 15 15 15 15 15 15 15 15 15 15 15 15 15 15 15 15 15
17 16 16 16 16 16 16 16 16 16 16 16 16 16 16 15 15 16 15 15 15 15 15 15 15 15 15 15 15 15 15 15 15 14 14 14 14 14 14 14 14 14 14
16 16 16 16 16 16 15 15 15 15 15 15 15 15 15 15 15 15 15 15 15 15 15 15 14 15 15 14 14 14 14 14 14 14 14 13 13 13 13 13 13 13 13
16 16 16 16 15 15 15 15 15 15 15 15 15 14 14 14 15 15 15 14 14 14 14 14 14 14 14 14 14 14 13 13 13 13 13 13 12 12 12 12 12 12 12
16 15 15 15 15 15 15 14 14 14 14 14 14 14 14 14 14 14 14 14 14 13 13 13 13 13 13 13 13 13 13 12 12 12 12 12 12 11 11 12 12 11 11
15 15 15 15 15 14 14 14 14 14 14 13 13 13 13 13 13 13 13 13 13 13 12 12 12 12 12 12 12 12 12 12 12 11 11 11 11 11 11 11 11 11 10
15 15 15 14 14 14 14 14 14 13 13 13 13 13 13 13 13 13 13 12 12 12 12 12 12 12 12 12 12 11 11 11 11 10 10 10 10 10 10 10 10 10 10
14 14 14 14 14 14 14 13 13 13 13 13 12 12 12 12 12 12 12 12 12 11 11 11 11 11 11 11 10 10 10 10 10 10 10 9 9 9 9 9 9 9 9
14 13 13 13 13 13 13 13 13 13 12 12 12 12 11 11 11 11 11 11 11 11 10 10 10 10 10 10 10 9 9 9 9 9 9 9 8 8 8 8 8 8 8
13 13 13 13 12 13 12 12 12 12 12 12 11 11 11 11 10 10 10 10 10 10 10 9 9 9 9 9 9 8 8 8 8 8 8 8 8 8 8 8 8 8 8
12 12 12 12 12 12 12 12 12 12 12 11 11 11 10 10 10 10 10 9 9 9 9 9 9 8 8 8 8 8 8 7 7 7 7 7 7 7 7 7 7 7 7
12 12 11 11 11 11 11 11 10 10 10 10 10 10 10 10 9 9 9 9 9 9 9 8 8 8 8 7 7 7 7 7 6 6 6 6 6 6 6 6 6 6 6
11 11 11 11 11 10 10 10 10 9 9 9 9 9 9 9 8 8 8 8 8 8 8 8 7 7 7 7 7 6 6 6 6 6 6 6 6 6 6 6 6 5 5
11 11 11 10 10 10 10 9 9 9 8 8 8 8 8 8 8 8 8 8 8 7 7 7 7 6 6 6 6 6 5 5 5 5 5 5 5 5 5 5 5 5 5
10 10 10 10 10 10 9 9 9 8 8 8 7 7 7 7 7 7 7 7 7 7 6 6 6 6 5 5 5 5 5 5 5 5 5 4 4 4 4 4 5 4 5
10 10 10 10 10 9 9 9 9 8 8 7 7 7 7 7 7 7 7 7 6 6 6 6 5 5 5 5 5 5 4 4 4 4 4 4 4 4 4 4 4 4 4
9 9 9 9 9 9 9 8 8 8 7 7 7 7 7 7 7 6 6 6 6 6 5 5 5 5 5 4 4 4 4 4 4 3 3 3 3 4 4 4 4 4 4
9 9 9 9 9 8 8 8 8 7 7 7 7 7 7 6 6 6 6 6 5 5 5 5 5 4 4 4 4 4 4 3 3 3 3 3 3 3 3 3 3 3 3
9 9 9 8 8 8 8 8 8 7 7 7 7 6 6 6 6 5 5 5 5 5 4 4 4 4 3 3 3 3 3 3 3 3 3 3 3 3 3 3 3 3 3
9 9 9 8 8 8 8 8 7 7 7 7 6 6 6 6 5 5 5 5 4 4 4 4 3 3 3 3 3 3 3 3 3 3 3 3 3 3 3 3 3 3 3
9 9 9 8 8 8 8 8 7 7 7 7 6 6 6 5 5 5 4 4 4 4 4 3 3 3 3 3 3 3 3 3 3 3 3 3 3 3 3 3 3 3 3
9 9 9 8 8 8 8 7 7 7 7 6 6 6 6 5 5 5 4 4 4 4 3 3 3 3 3 3 3 3 3 3 3 3 2 2 2 2 2 2 2 3 3
Wind_Speed
5 4 3 4 4 5 5 5 4 4 5 5 6 6 6 6 6 6 6 6 6 6 5 5 5 4 3 3 2 2 2 2 3 3 1 0 0 1 2 5 6 7 10
4 3 3 3 3 3 3 3 3 4 4 5 5 5 5 5 5 6 7 6 6 6 5 4 4 4 4 2 2 2 1 1 2 3 2 1 1 2 2 3 4 6 6
4 3 3 3 3 2 2 2 2 3 4 4 5 5 5 4 5 5 5 4 4 4 4 4 4 3 3 2 2 2 1 2 1 1 2 2 2 2 1 2 3 2 5
4 4 4 3 3 2 2 2 2 3 4 4 4 4 4 4 4 4 4 3 3 2 2 2 2 3 3 2 2 1 1 1 1 1 2 2 2 2 1 2 3 2 3
5 4 3 3 3 3 3 3 3 3 3 3 3 3 3 3 3 3 3 4 3 3 2 2 2 2 2 2 1 1 1 1 1 1 1 1 2 2 2 2 3 3 3
5 4 3 4 4 4 4 4 4 5 5 5 4 5 4 3 4 5 4 4 5 4 4 2 2 3 4 4 4 3 2 1 0 1 1 1 2 3 3 3 3 3 3
4 4 4 4 5 5 5 6 6 6 6 7 6 6 6 7 8 9 8 6 6 5 4 3 2 3 3 2 3 3 3 3 2 1 1 1 2 3 3 3 3 3 3
4 4 4 5 5 5 6 6 6 6 6 6 6 6 7 8 9 9 9 7 6 6 6 5 4 5 5 3 2 3 3 3 3 2 2 2 3 3 3 3 4 4 3
5 5 5 4 5 6 6 6 6 6 6 6 6 6 7 7 8 8 7 5 6 8 8 8 7 7 8 7 4 4 5 4 6 8 7 6 5 6 6 4 4 4 3
5 5 5 5 5 6 6 6 6 6 6 7 7 7 7 7 9 9 6 5 6 6 7 9 13 11 11 9 6 5 6 4 3 3 3 3 3 5 6 4 3 3 3
6 6 6 6 6 6 5 5 5 6 7 7 9 9 8 8 10 11 9 5 6 7 7 7 7 10 11 11 8 6 4 2 1 1 2 2 3 3 4 5 4 3 3
7 8 7 6 6 6 6 5 5 6 6 7 8 9 8 8 9 10 12 10 8 8 7 6 6 8 10 9 7 7 6 4 2 3 3 3 3 3 2 3 2 2 2
8 9 8 8 7 6 6 5 4 4 5 6 6 7 7 7 8 12 13 13 12 8 6 7 6 6 6 6 7 7 6 5 5 4 4 4 3 2 2 2 3 3 4
9 8 8 9 9 9 8 7 6 5 5 6 6 7 7 6 6 5 6 7 8 7 5 4 4 4 4 5 5 5 4 5 4 4 4 3 2 2 2 3 3 3 2
9 9 9 9 10 12 13 12 11 9 7 6 6 6 6 6 5 6 5 4 4 3 2 1 2 3 3 4 4 5 5 5 5 4 4 4 4 4 4 3 3 4 4
8 7 8 8 9 10 11 13 19 16 19 18 15 12 10 10 9 11 11 9 8 7 4 4 5 5 5 5 5 5 5 6 5 5 5 5 5 5 5 5 5 5 5
8 8 8 8 8 9 9 9 10 12 17 18 16 15 12 10 10 9 8 8 7 6 5 6 6 5 5 5 5 5 5 5 5 5 5 5 5 5 4 4 4 5 5
9 10 8 8 8 8 8 8 8 9 9 9 9 11 10 9 8 7 6 5 5 6 6 6 6 6 6 6 6 6 5 5 5 5 5 5 5 5 5 5 4 5 5
9 7 7 8 7 8 7 8 8 9 9 8 7 6 5 5 6 7 6 4 5 6 6 6 6 5 5 5 5 5 5 5 5 5 5 6 6 5 5 5 5 6 5
8 10 8 7 8 8 7 8 8 8 8 7 7 5 3 3 4 5 5 5 6 6 6 6 6 6 5 5 5 5 5 5 5 5 5 5 5 5 5 5 5 5 5
7 8 7 7 7 7 7 8 8 8 8 7 7 5 4 4 6 6 6 5 6 6 6 5 5 5 5 5 5 6 7 6 6 6 6 6 6 5 5 5 5 5 5
6 6 7 8 8 8 8 8 8 7 8 8 6 5 5 5 5 6 6 6 6 5 6 5 5 5 6 5 5 6 6 7 7 7 7 7 6 5 5 5 5 5 5
7 8 8 8 7 7 7 7 7 7 6 6 6 6 5 5 6 6 6 6 5 6 7 7 6 7 8 9 10 9 7 7 7 8 7 7 7 6 6 5 6 6 6
7 8 8 7 7 7 7 6 6 6 6 6 6 5 5 5 5 6 5 5 6 6 7 7 8 9 10 10 10 10 10 10 10 10 10 8 8 6 6 6 6 7 6
7 7 7 7 6 6 6 5 5 5 5 5 5 5 5 5 5 5 4 5 5 5 6 6 7 8 10 11 10 9 11 12 12 11 11 9 7 6 6 7 6 6 6
6 6 6 6 6 6 5 5 5 5 5 5 5 5 4 4 4 4 4 4 4 4 5 6 7 8 9 8 8 9 11 12 14 15 12 9 7 5 6 6 8 6 6
Wind_Direction
178 187 191 186 191 199 212 219 213 207 206 201 193 191 192 197 198 202 213 203 201 209 220 215 215 233 261 279 271 256 247 241 246 275 292 327 63 12 158 227 235 212 212
153 161 167 173 178 185 197 202 201 192 194 193 189 187 193 198 199 206 216 207 204 210 216 218 213 219 218 252 283 289 285 262 238 266 302 314 272 244 215 236 257 247 237
132 136 133 132 135 149 168 172 179 179 186 190 186 189 196 196 197 203 207 204 205 204 201 203 208 203 202 216 238 267 298 301 297 266 285 305 302 300 271 259 270 288 280
115 112 111 112 116 126 126 126 155 172 177 181 185 187 184 169 171 178 181 179 178 183 186 193 198 185 191 207 220 237 275 301 323 310 293 304 309 308 342 298 294 294 287
94 92 99 111 115 114 107 102 101 117 133 131 136 139 143 151 157 145 147 154 140 125 105 90 89 101 113 134 175 183 218 245 292 311 306 330 342 353 349 313 307 309 299
97 93 92 104 106 103 100 101 98 99 102 105 104 105 102 109 100 105 109 106 106 102 95 94 102 83 100 108 106 86 84 112 317 328 351 11 8 1 353 344 347 341 325
97 97 95 105 104 99 103 102 99 96 96 97 98 97 88 72 79 88 90 88 88 87 81 70 71 67 72 110 115 99 76 63 80 112 54 353 0 355 344 340 339 324 300
89 86 86 96 104 107 104 101 97 94 93 94 95 94 87 73 74 84 86 86 82 76 67 61 64 48 39 48 83 85 74 44 55 91 90 41 29 7 348 334 323 321 316
82 82 83 86 93 98 100 100 98 97 93 90 89 86 86 73 67 77 86 94 83 74 67 56 58 57 44 48 68 85 85 74 78 88 93 88 68 46 31 17 5 356 334
79 78 79 79 88 95 98 102 104 105 105 100 88 81 84 78 66 69 78 96 95 87 77 66 57 55 47 50 59 71 75 62 59 73 82 70 62 57 52 46 17 358 341
77 78 78 79 84 90 94 101 105 105 103 100 94 83 77 73 68 66 67 80 93 92 81 68 54 53 54 52 57 62 61 43 30 53 80 71 57 51 46 41 28 20 0
78 78 75 75 84 91 92 95 104 110 109 106 99 90 76 66 64 68 69 72 81 90 87 81 72 65 61 51 53 43 31 22 34 52 53 49 46 35 18 1 347 334 291
82 79 76 71 71 71 81 88 98 111 111 108 103 96 88 80 71 70 74 75 77 84 88 96 89 76 68 61 53 40 32 36 38 40 39 34 25 12 351 352 352 342 320
85 82 78 76 69 59 56 55 59 62 85 95 96 96 90 78 69 67 80 84 88 85 87 89 79 54 57 50 44 43 43 39 33 31 25 17 8 6 4 6 352 336 335
92 90 86 81 79 71 64 52 58 52 57 80 86 88 93 84 55 51 65 65 64 69 71 97 86 69 62 62 54 43 38 33 29 21 20 15 12 11 10 10 359 348 356
101 96 96 95 93 93 90 76 59 63 61 64 72 83 78 77 68 58 54 48 42 33 51 72 65 58 56 52 49 47 44 33 19 18 20 18 10 6 6 6 3 0 356
96 97 97 97 97 99 102 101 94 73 64 62 65 73 79 74 63 54 47 35 23 33 62 66 60 49 44 47 43 40 39 30 13 16 15 10 3 359 1 359 1 358 350
93 91 95 98 102 103 104 105 103 103 97 82 66 65 69 65 54 41 31 33 57 60 64 63 60 53 46 42 38 34 34 30 15 10 13 9 5 359 358 355 2 4 345
87 89 90 95 97 99 102 103 102 100 100 103 100 78 63 66 48 33 33 48 64 66 67 62 57 53 48 44 34 26 30 31 16 8 17 9 1 355 357 355 357 355 339
87 89 92 99 99 98 96 97 99 99 98 96 94 90 86 103 85 67 56 50 61 64 62 61 57 55 48 41 32 23 28 29 17 12 15 3 355 354 353 349 348 343 338
103 105 105 97 95 95 95 94 95 99 99 95 89 76 60 83 83 78 69 61 60 60 54 55 59 53 49 40 33 27 28 26 21 11 5 358 353 350 344 344 342 340 340
112 108 99 95 95 93 95 96 99 102 105 106 108 99 75 72 73 77 73 69 63 58 52 41 45 50 43 38 31 28 28 25 15 2 352 346 341 339 340 345 345 341 340
111 105 100 98 101 107 106 105 105 104 102 102 100 93 86 77 76 73 68 67 65 59 54 49 46 43 41 41 42 39 30 17 359 351 345 340 337 335 337 340 338 338 341
110 112 112 112 112 110 104 102 101 103 103 98 95 94 91 85 81 81 77 71 69 65 61 57 56 51 47 45 44 42 33 15 359 348 341 328 325 333 340 339 337 340 337
109 112 113 112 110 106 105 103 100 96 95 96 97 96 95 93 89 85 80 79 77 71 67 64 63 59 54 55 47 34 20 13 6 353 335 321 318 327 334 331 331 329 334
108 110 110 110 106 104 102 98 96 95 94 92 91 89 90 93 90 90 89 82 81 78 68 65 64 68 66 56 45 32 20 9 0 352 338 315 314 330 338 330 332 335 338
Height
1504 1505 1507 1508 1509 1511 1513 1515 1516 1519 1521 1524 1527 1529 1532 1534 1537 1539 1541 1544 1546 1548 1550 1551 1553 1554 1555 1557 1558 1559 1559 1560 1560 1561 1562 1562 1562 1563 1563 1563 1563 1563 1563
1503 1504 1505 1506 1507 1509 1510 1512 1513 1515 1518 1520 1523 1526 1528 1530 1532 1535 1537 1540 1542 1544 1546 1548 1549 1551 1552 1553 1554 1555 1556 1557 1558 1558 1558 1559 1559 1559 1559 1559 1560 1560 1560
1502 1502 1503 1504 1506 1507 1508 1509 1510 1512 1514 1517 1519 1522 1524 1526 1529 1531 1534 1536 1538 1540 1542 1544 1545 1547 1548 1549 1550 1551 1552 1554 1554 1555 1555 1555 1555 1556 1555 1556 1556 1556 1556
1502 1502 1502 1503 1504 1505 1506 1507 1508 1510 1511 1514 1516 1519 1521 1524 1526 1529 1531 1533 1535 1537 1538 1540 1542 1543 1544 1545 1547 1548 1549 1550 1551 1551 1551 1552 1552 1552 1552 1553 1553 1553 1553
1502 1502 1502 1503 1504 1505 1505 1506 1507 1508 1510 1512 1515 1517 1520 1522 1524 1526 1528 1530 1532 1533 1535 1536 1538 1539 1541 1542 1543 1544 1545 1546 1547 1547 1548 1548 1549 1549 1549 1549 1549 1549 1549
1503 1503 1503 1503 1504 1505 1505 1506 1507 1508 1510 1512 1514 1516 1518 1520 1523 1525 1527 1528 1529 1531 1532 1534 1535 1537 1538 1539 1540 1541 1542 1543 1543 1544 1545 1545 1545 1545 1546 1546 1546 1545 1545
1504 1504 1504 1504 1504 1505 1505 1506 1507 1509 1510 1512 1515 1517 1518 1520 1522 1524 1526 1527 1528 1529 1531 1532 1533 1534 1535 1536 1536 1537 1539 1540 1541 1541 1542 1542 1542 1543 1543 1543 1543 1543 1542
1504 1505 1505 1504 1505 1505 1506 1507 1508 1510 1512 1514 1515 1517 1519 1521 1522 1524 1525 1527 1528 1529 1530 1531 1532 1532 1533 1533 1533 1534 1536 1537 1537 1538 1539 1539 1540 1540 1540 1540 1540 1539 1539
1505 1505 1505 1506 1506 1507 1507 1508 1510 1511 1513 1515 1516 1518 1519 1521 1523 1524 1526 1527 1528 1529 1530 1530 1531 1531 1532 1532 1532 1533 1533 1534 1535 1536 1536 1537 1537 1537 1537 1537 1536 1536 1536
1506 1506 1507 1507 1508 1508 1509 1511 1512 1513 1515 1516 1517 1519 1520 1522 1523 1525 1526 1527 1527 1529 1529 1530 1530 1531 1531 1531 1532 1532 1532 1533 1533 1534 1534 1535 1535 1535 1535 1535 1534 1534 1533
1506 1507 1507 1508 1509 1510 1511 1512 1514 1515 1516 1517 1518 1520 1522 1523 1524 1525 1526 1527 1528 1529 1529 1530 1530 1531 1531 1531 1532 1532 1532 1533 1533 1534 1534 1534 1534 1534 1533 1533 1533 1532 1532
1506 1507 1508 1509 1510 1511 1512 1513 1515 1516 1518 1519 1520 1521 1523 1524 1525 1525 1526 1527 1528 1529 1529 1530 1531 1532 1532 1532 1532 1532 1533 1533 1534 1534 1534 1534 1534 1533 1533 1533 1532 1532 1531
1507 1507 1509 1510 1511 1512 1513 1514 1516 1518 1519 1520 1521 1522 1523 1524 1526 1527 1528 1529 1529 1530 1531 1532 1532 1533 1533 1533 1534 1534 1534 1534 1534 1534 1534 1535 1534 1534 1533 1532 1532 1531 1530
1507 1508 1510 1511 1512 1513 1514 1516 1517 1518 1520 1521 1522 1523 1524 1525 1526 1527 1529 1530 1530 1531 1532 1533 1534 1535 1535 1535 1535 1535 1535 1535 1534 1534 1535 1535 1534 1534 1533 1532 1531 1530 1529
1509 1510 1511 1512 1513 1514 1515 1517 1518 1519 1521 1522 1523 1524 1525 1526 1527 1529 1529 1530 1531 1533 1533 1534 1535 1536 1536 1536 1536 1536 1536 1535 1535 1535 1535 1534 1534 1533 1532 1531 1530 1529 1528
1510 1512 1513 1514 1515 1516 1517 1519 1520 1521 1523 1524 1525 1526 1526 1527 1528 1530 1531 1532 1534 1535 1535 1536 1537 1537 1538 1538 1538 1538 1537 1536 1535 1535 1534 1534 1533 1532 1531 1530 1529 1528 1527
1513 1514 1515 1517 1518 1519 1521 1521 1522 1524 1525 1526 1527 1528 1529 1530 1531 1533 1534 1535 1536 1537 1538 1538 1539 1539 1539 1539 1539 1539 1538 1537 1536 1535 1535 1534 1533 1532 1531 1529 1528 1527 1526
1515 1517 1518 1520 1521 1522 1523 1524 1526 1526 1527 1529 1531 1532 1533 1534 1535 1536 1537 1538 1538 1539 1540 1540 1541 1541 1541 1540 1540 1540 1539 1538 1537 1536 1535 1534 1532 1531 1530 1529 1528 1526 1524
1518 1520 1521 1523 1524 1525 1527 1528 1529 1530 1531 1533 1534 1536 1537 1537 1538 1539 1540 1541 1541 1542 1542 1543 1543 1543 1542 1542 1541 1541 1540 1538 1537 1536 1535 1533 1532 1531 1529 1528 1527 1525 1523
1521 1523 1525 1526 1527 1529 1530 1532 1533 1534 1536 1537 1538 1539 1540 1541 1542 1542 1543 1543 1544 1544 1544 1545 1544 1544 1543 1543 1542 1541 1540 1539 1537 1536 1535 1533 1532 1531 1529 1528 1526 1524 1523
1525 1527 1528 1530 1531 1532 1534 1535 1536 1538 1539 1540 1541 1543 1543 1544 1545 1545 1545 1546 1546 1546 1546 1546 1546 1545 1544 1543 1543 1541 1540 1539 1537 1536 1535 1533 1532 1530 1529 1527 1526 1524 1522
1529 1531 1532 1533 1534 1536 1537 1538 1540 1541 1542 1543 1544 1545 1546 1547 1547 1548 1548 1548 1548 1548 1547 1547 1547 1546 1545 1544 1543 1541 1540 1539 1537 1535 1534 1533 1532 1530 1529 1527 1525 1524 1522
1533 1534 1535 1537 1538 1539 1541 1542 1543 1545 1546 1547 1547 1548 1548 1549 1549 1549 1549 1549 1549 1548 1548 1548 1547 1546 1545 1544 1543 1541 1540 1538 1537 1535 1533 1532 1531 1530 1528 1527 1525 1523 1521
1537 1538 1539 1540 1541 1543 1544 1545 1546 1547 1548 1549 1549 1550 1550 1550 1550 1550 1550 1550 1550 1549 1549 1548 1548 1547 1545 1544 1542 1541 1539 1538 1536 1534 1533 1531 1530 1529 1527 1526 1524 1523 1521
1539 1540 1542 1543 1544 1545 1546 1547 1548 1549 1550 1550 1551 1551 1551 1551 1551 1551 1551 1551 1551 1550 1550 1549 1548 1546 1545 1544 1542 1540 1539 1537 1535 1534 1532 1531 1530 1528 1527 1525 1524 1522 1520
1541 1542 1543 1545 1546 1547 1548 1549 1550 1550 1551 1551 1552 1552 1552 1552 1552 1552 1552 1552 1551 1551 1550 1549 1548 1546 1545 1543 1541 1540 1538 1536 1535 1533 1532 1530 1529 1528 1526 1524 1523 1521 1519